Location: Bu�n Treun
(12.1333°N, 108.3167°E)
Time: 22:24:31
(UTC+00:00)

Lacrosse 4 Rocket - Pass Details

Date: 13 July 2020
Orbit: 543 x 616 km, 68.0° (Epoch: 14 August)

Event Time Altitude Azimuth Distance (km) Brightness Sun altitude
Exits shadow 20:39:37 - 152° (SSE) 2,538 4.7 -24.9°
Reaches altitude 10° 20:42:14 10° 127° (SE) 1,967 4.4 -24.3°
Maximum altitude 20:43:48 12° 106° (ESE) 1,854 4.5 -24.0°
Drops below altitude 10° 20:45:21 10° 85° (E) 1,963 5.0 -23.7°
Sets 20:49:03 0° 53° (NE) 2,857 6.4 -22.9°
